Regional Weather Roundup
Issued by NWS Goodland, KS

Home | Current Version | Previous Version | Text Only | Print | Product List | Glossary Off
Versions: 1 2 3 4 5 6 7 8 9 10 11 12 13 14 15 16 17 18 19 20 21 22 23 24 25 26 27 28 29 30 31 32 33 34 35 36 37 38 39 40 41 42 43 44 45 46 47 48 49 50

553
ASUS43 KGLD 042159
RWRGLD

GOODLAND FORECAST AREA HOURLY WEATHER ROUNDUP
NATIONAL WEATHER SERVICE GOODLAND KS
400 PM MDT WED MAY 04 2016

...OFFICIAL OBSERVATIONS...

CITY           SKY/WX    TMP DP  RH WIND       PRES   REMARKS
GOODLAND KS    SUNNY     75  38  26 NE3       30.12F
HILL CITY KS   SUNNY     77  38  24 NE7       30.08F
IMPERIAL NEB   SUNNY     77  38  24 NE7       30.10F
MCCOOK NEB     SUNNY     78  42  27 N9        30.07F
AKRON CO       SUNNY     72  36  26 E7        30.15F
BURLINGTON CO  SUNNY     74  34  23 E5        30.14F
LIMON CO       SUNNY     72  34  24 NE8       30.18F
$$

...UNOFFICIAL OBSERVATIONS...

CITY           SKY/WX    TMP DP  RH WIND       PRES   REMARKS
COLBY KS       MOSUNNY   73  52  46 N10       30.12F
LENORA KS        N/A     74  32  21 MISG        N/A
NORTON KS      SUNNY     75  30  19 N9        30.07F
SHARON SPRINGS   N/A     76  43  31 CALM        N/A
KIT CARSON CO    N/A     76  40  27 MISG        N/A
YUMA CO          N/A     74  39  27 CALM        N/A
$$




USA.gov is the U.S. government's official web portal to all federal, state and local government web resources and services.